Location: Auckland
(36.8670°S, 174.7670°E)
Time: 04:34:00
(UTC+12:00)

Courier 1B Rocket - Pass Details

Date: 25 July 2019
Orbit: 920 x 1202 km, 28.3° (Epoch: 20 August)

Event Time Altitude Azimuth Distance (km) Brightness Sun altitude
Rises 01:56:42 0° 321° (NW) 4,066 - -64.1°
Reaches altitude 10° 02:00:11 10° 335° (NNW) 3,123 - -63.6°
Maximum altitude 02:06:01 23° 23° (NNE) 2,298 - -62.6°
Drops below altitude 10° 02:11:51 10° 72° (ENE) 3,119 - -61.6°
Exits shadow 02:14:58 - 84° (E) 3,960 8.5 -61.0°
Sets 02:15:19 0° 85° (E) 4,059 8.6 -61.0°
